Time,TemperatureF,DewpointF,PressureIn,WindDirection,WindDirectionDegrees,WindSpeedMPH,WindSpeedGustMPH,Humidity,HourlyPrecipIn,Conditions,Clouds,dailyrainin,SoftwareType,DateUTC
2013-01-06 16:22:00,74.0,-99.9,30.11,West,264,10.0,12.0,-999,-99.99,,,-99.99,,2013-01-06 21:22:00,
2013-01-06 16:33:00,74.0,-99.9,30.11,WSW,258,9.0,11.0,-999,-99.99,,,-99.99,,2013-01-06 21:33:00,
2013-01-06 16:43:00,73.0,-99.9,30.11,West,274,8.0,11.0,-999,-99.99,,,-99.99,,2013-01-06 21:43:00,
2013-01-06 16:53:00,73.0,-99.9,30.11,WSW,248,9.0,11.0,-999,-99.99,,,-99.99,,2013-01-06 21:53:00,
2013-01-06 17:02:00,73.0,-99.9,30.11,WSW,251,8.0,11.0,-999,-99.99,,,-99.99,,2013-01-06 22:02:00,
2013-01-06 17:12:00,73.0,-99.9,30.11,West,272,7.0,11.0,-999,-99.99,,,-99.99,,2013-01-06 22:12:00,
2013-01-06 17:23:00,73.0,-99.9,30.12,West,279,7.0,10.0,-999,-99.99,,,-99.99,,2013-01-06 22:23:00,
2013-01-06 17:33:00,73.0,-99.9,30.12,WNW,301,7.0,12.0,-999,-99.99,,,-99.99,,2013-01-06 22:33:00,
2013-01-06 17:43:00,72.0,-99.9,30.12,WNW,293,10.0,12.0,-999,-99.99,,,-99.99,,2013-01-06 22:43:00,
2013-01-06 17:53:00,71.0,-99.9,30.12,NW,312,9.0,12.0,-999,-99.99,,,-99.99,,2013-01-06 22:53:00,
2013-01-06 18:02:00,70.0,-99.9,30.13,NW,313,8.0,10.0,-999,-99.99,,,-99.99,,2013-01-06 23:02:00,
2013-01-06 18:13:00,68.0,-99.9,30.13,NW,307,12.0,14.0,-999,-99.99,,,-99.99,,2013-01-06 23:13:00,
2013-01-06 18:22:00,67.0,-99.9,30.13,NW,309,9.0,12.0,-999,-99.99,,,-99.99,,2013-01-06 23:22:00,
2013-01-06 18:33:00,67.0,-99.9,30.13,NW,309,11.0,13.0,-999,-99.99,,,-99.99,,2013-01-06 23:33:00,
2013-01-06 18:43:00,67.0,-99.9,30.13,NW,321,9.0,13.0,-999,-99.99,,,-99.99,,2013-01-06 23:43:00,
2013-01-06 18:53:00,67.0,-99.9,30.14,NW,304,11.0,14.0,-999,-99.99,,,-99.99,,2013-01-06 23:53:00,
2013-01-06 19:03:00,67.0,-99.9,30.14,NW,304,10.0,13.0,-999,-99.99,,,-99.99,,2013-01-07 00:03:00,
2013-01-06 19:12:00,67.0,-99.9,30.14,NW,310,10.0,13.0,-999,-99.99,,,-99.99,,2013-01-07 00:12:00,
2013-01-06 19:23:00,67.0,-99.9,30.14,NW,308,10.0,13.0,-999,-99.99,,,-99.99,,2013-01-07 00:23:00,
2013-01-06 19:33:00,68.0,-99.9,30.14,NW,314,6.0,10.0,-999,-99.99,,,-99.99,,2013-01-07 00:33:00,
2013-01-06 19:43:00,68.0,-99.9,30.14,NW,316,4.0,7.0,-999,-99.99,,,-99.99,,2013-01-07 00:43:00,
2013-01-06 19:53:00,68.0,-99.9,30.13,ENE,67,3.0,4.0,-999,-99.99,,,-99.99,,2013-01-07 00:53:00,
2013-01-06 20:03:00,67.0,-99.9,30.14,NE,54,2.0,3.0,-999,-99.99,,,-99.99,,2013-01-07 01:03:00,
2013-01-06 20:12:00,67.0,-99.9,30.14,East,83,3.0,4.0,-999,-99.99,,,-99.99,,2013-01-07 01:12:00,
2013-01-06 20:23:00,67.0,-99.9,30.14,East,88,1.0,3.0,-999,-99.99,,,-99.99,,2013-01-07 01:23:00,
2013-01-06 20:33:00,66.0,-99.9,30.14,ESE,120,3.0,5.0,-999,-99.99,,,-99.99,,2013-01-07 01:33:00,
2013-01-06 20:43:00,66.0,-99.9,30.14,East,101,1.0,5.0,-999,-99.99,,,-99.99,,2013-01-07 01:43:00,
2013-01-06 20:53:00,65.0,-99.9,30.15,ENE,78,1.0,6.0,-999,-99.99,,,-99.99,,2013-01-07 01:53:00,
2013-01-06 21:02:00,65.0,-99.9,30.15,SE,125,3.0,4.0,-999,-99.99,,,-99.99,,2013-01-07 02:02:00,
2013-01-06 21:12:00,65.0,-99.9,30.15,SE,136,2.0,3.0,-999,-99.99,,,-99.99,,2013-01-07 02:12:00,
2013-01-06 21:23:00,65.0,-99.9,30.15,SE,125,2.0,2.0,-999,-99.99,,,-99.99,,2013-01-07 02:23:00,
2013-01-06 21:33:00,65.0,-99.9,30.15,North,-999,-999.0,-999.0,-999,-99.99,,,-99.99,,2013-01-07 02:33:00,
2013-01-06 21:43:00,65.0,-99.9,30.15,North,-999,-999.0,-999.0,-999,-99.99,,,-99.99,,2013-01-07 02:43:00,
2013-01-06 21:53:00,65.0,-99.9,30.15,South,174,1.0,3.0,-999,-99.99,,,-99.99,,2013-01-07 02:53:00,
2013-01-06 22:03:00,66.0,-99.9,30.14,North,5,3.0,3.0,-999,-99.99,,,-99.99,,2013-01-07 03:03:00,
2013-01-06 22:12:00,66.0,-99.9,30.14,NNE,19,2.0,3.0,-999,-99.99,,,-99.99,,2013-01-07 03:12:00,
2013-01-06 22:23:00,66.0,-99.9,30.15,NNE,12,4.0,6.0,-999,-99.99,,,-99.99,,2013-01-07 03:23:00,
2013-01-06 22:33:00,66.0,-99.9,30.15,North,1,7.0,9.0,-999,-99.99,,,-99.99,,2013-01-07 03:33:00,
2013-01-06 22:43:00,67.0,-99.9,30.15,North,353,4.0,8.0,-999,-99.99,,,-99.99,,2013-01-07 03:43:00,
2013-01-06 22:53:00,66.0,-99.9,30.16,North,356,7.0,11.0,-999,-99.99,,,-99.99,,2013-01-07 03:53:00,
2013-01-06 23:02:00,66.0,-99.9,30.16,North,360,7.0,12.0,-999,-99.99,,,-99.99,,2013-01-07 04:02:00,
2013-01-06 23:13:00,65.0,-99.9,30.16,North,358,5.0,8.0,-999,-99.99,,,-99.99,,2013-01-07 04:13:00,
2013-01-06 23:22:00,65.0,-99.9,30.16,NNE,19,3.0,6.0,-999,-99.99,,,-99.99,,2013-01-07 04:22:00,
2013-01-06 23:33:00,65.0,-99.9,30.16,NNE,13,6.0,8.0,-999,-99.99,,,-99.99,,2013-01-07 04:33:00,
2013-01-06 23:42:00,65.0,-99.9,30.16,NNE,21,3.0,7.0,-999,-99.99,,,-99.99,,2013-01-07 04:42:00,
2013-01-06 23:53:00,65.0,-99.9,30.16,NNE,21,4.0,9.0,-999,-99.99,,,-99.99,,2013-01-07 04:53:00,